Location: Kiowa
(33.7993°N, 86.6672°W)
Time: 05:39:14
(UTC+00:00)

Daily predictions for brighter satellites

Satellite Brightness Start Highest point End
(mag) Time Altitude Azimuth Time Altitude Azimuth Time Altitude Azimuth
DMSP B5D2-2 4.1 00:52:49 10° NNE 00:58:06 71° E 01:03:22 10° S
Cosmos 1655 Rocket 4.4 00:57:45 10° NNW 01:03:55 70° W 01:10:05 10° S
OBJECT-B 2.4 01:01:54 10° ESE 01:04:20 20° ENE 01:06:45 10° NNE
PEGASUS R/B 3.4 01:01:11 10° SSE 01:04:22 83° ENE 01:06:43 10° NNW
Cosmos 1862 4.2 01:01:47 10° NNE 01:05:21 30° E 01:08:55 10° SE
BREEZE-M DEB (TANK) 4.0 01:05:58 10° N 01:07:22 14° NE 01:09:00 10° ENE
USA 229 DEB 4.1 01:00:16 10° NNW 01:07:48 89° NE 01:15:39 10° SSE
USA 229 4.1 01:00:21 10° NNW 01:07:54 88° ENE 01:15:45 10° SSE
MetOp-A 4.4 01:03:36 10° SSE 01:08:43 50° ENE 01:13:52 10° N
Cosmos 1766 Rocket 3.8 01:08:39 10° N 01:13:03 78° W 01:17:28 10° S
Cosmos 1437 Rocket 4.0 01:10:50 10° SE 01:13:48 22° E 01:16:50 10° NE
FALCON 9 DEB 3.1 01:10:26 10° NW 01:13:51 86° SW 01:17:13 10° SE
CZ-3C R/B 3.4 01:12:50 10° S 01:13:56 11° SSE 01:15:20 10° SE
SAR-Lupe-4 3.9 01:12:28 10° N 01:16:02 69° WNW 01:19:34 10° SSW
YAOGAN 1 4.3 01:14:21 10° SSW 01:18:17 34° W 01:22:13 10° NNW
BREEZE-M (TANK) 4.0 01:06:48 10° NW 01:23:38 88° NE 01:27:09 14° SE
Resurs 01 Rocket 3.5 01:22:22 11° E 01:24:32 14° ENE 01:26:57 10° NE
NOSS 3-1 (A) 4.4 01:18:25 10° NNW 01:26:28 77° WSW 01:35:28 10° SSE
H-2A R/B 4.5 01:26:19 10° SW 01:29:57 21° W 01:33:35 10° NW
Cosmos 2208 Rocket 4.3 01:25:03 10° N 01:30:24 57° ENE 01:35:19 12° SSE
Cosmos 841 Rocket 3.7 01:29:40 10° NNW 01:34:47 70° WSW 01:39:52 10° S
Lacrosse 5 rocket 3.4 01:32:22 10° WNW 01:35:55 24° WSW 01:39:34 10° S
DELTA 2 R/B (1) 4.4 01:33:11 10° WNW 01:38:33 46° N 01:43:53 10° ENE
SJ-6B 2.7 01:35:18 11° SSE 01:38:52 69° ENE 01:42:46 10° N
Cosmos 1553 Rocket 3.9 01:34:11 10° S 01:40:12 68° E 01:46:20 10° NNE
Cosmos 1244 Rocket 4.5 01:35:03 10° N 01:41:20 72° E 01:47:30 10° SSE
Nadezhda 2 Rocket 4.4 01:35:38 10° N 01:41:46 79° E 01:47:50 10° S
Cosmos 1603 4.3 01:40:51 10° NNW 01:46:23 57° WSW 01:51:51 10° S
Cosmos 1606 2.7 01:47:49 10° S 01:51:34 78° W 01:55:20 10° N
ASTRO E2 3.1 01:48:02 10° W 01:51:53 48° S 01:53:31 29° SE
Cosmos 1503 Rocket 4.2 01:47:45 10° S 01:52:38 45° ESE 01:57:33 10° NNE
X-37B 3.6 01:52:36 10° NNW 01:53:36 11° N 01:54:35 10° NNE
Cosmos 1417 Rocket 4.4 01:48:01 10° S 01:54:14 75° E 02:00:24 10° N
MOS 1 4.3 01:51:06 16° SSE 01:55:39 70° ENE 02:01:18 10° N
Cosmos 921 Rocket 4.0 01:54:58 10° NNW 01:59:00 43° W 02:02:56 10° S
Cosmos 2084 4.3 02:06:35 29° E 02:06:35 29° E 02:09:19 10° NE
SL-4 R/B 3.2 02:01:43 10° NNW 02:05:53 38° NE 02:07:49 26° E
Ariane Rocket 2.9 02:03:03 20° SSE 02:06:33 86° ENE 02:11:38 10° NNW
Cosmos 2278 Rocket 3.8 02:10:59 17° ENE 02:10:59 17° ENE 02:13:13 10° NE
CZ-2C R/B 4.0 02:07:05 10° NNE 02:11:22 43° E 02:12:21 37° SE
Intercosmos 25 Rocket 3.5 02:06:08 10° N 02:11:39 79° E 02:13:15 35° SSE
Cosmos 1805 Rocket 3.5 02:10:30 10° N 02:14:50 66° E 02:16:12 41° SSE
USA 186 4.4 02:15:59 10° SW 02:17:12 12° W 02:18:24 10° WNW
SPOT 1/Viking Rocket 4.4 02:18:39 30° E 02:19:37 32° ENE 02:24:12 10° N
Cosmos 1844 Rocket 3.8 02:15:29 10° SW 02:20:46 45° WNW 02:26:06 10° N
Meteor 1-25 Rocket 4.5 02:16:21 10° N 02:22:04 53° E 02:23:59 38° SE
Resurs 1-3 3.8 02:20:22 28° S 02:22:35 67° W 02:26:57 10° NNW
Cosmos 1633 Rocket 4.3 02:19:19 10° NNE 02:22:40 27° ENE 02:22:40 27° ENE
Cosmos 1354 Rocket 3.9 02:18:47 10° SSW 02:23:59 80° ESE 02:29:14 10° NNE
Cosmos 1328 Rocket 4.2 02:27:50 38° ENE 02:27:50 38° ENE 02:31:27 10° NNE
FALCON 9 DEB 3.5 02:25:47 10° NW 02:28:13 52° NNW 02:28:13 52° NNW
Landsat 7 3.9 02:28:06 49° ESE 02:28:59 58° ENE 02:33:40 10° N
IGS 5A 3.3 02:30:18 64° ESE 02:30:42 70° ENE 02:34:49 10° N
Cosmos 836 Rocket 4.5 02:27:01 10° NNW 02:32:18 71° ENE 02:33:37 50° SE
SPOT 3 Rocket 3.4 02:31:36 46° SSE 02:33:09 76° ENE 02:38:18 10° N
GPS 2-04 Rocket1 3.3 02:30:39 10° WSW 02:33:42 44° SSW 02:33:42 44° SSW
FALCON 9 DEB 3.9 02:31:57 10° NW 02:34:10 44° NW 02:34:10 44° NW
OBJECT-B 3.7 02:34:39 10° SW 02:36:25 14° W 02:38:12 10° WNW
Cosmos 1242 Rocket 3.1 02:39:40 49° WSW 02:40:09 54° W 02:43:40 10° N
Cosmos 1933 4.2 02:40:12 28° SW 02:41:59 48° W 02:45:54 10° N
FALCON 9 DEB 4.5 02:41:12 10° NW 02:43:04 34° NW 02:43:04 34° NW
CRYOSAT 2 4.3 02:44:48 63° E 02:45:03 65° E 02:49:54 10° N
OAO 1 4.4 02:41:41 10° W 02:47:10 85° N 02:48:15 58° E
Cosmos 1666 Rocket 3.6 02:44:37 10° N 02:48:36 65° NE 02:48:36 65° NE
ATLAS 5 CENTAUR R/B 3.0 02:44:51 10° NNW 02:50:33 46° NE 02:51:48 41° E
Meteor 1-26 Rocket 4.4 02:51:28 31° SSW 02:54:18 73° W 02:59:55 10° N
Cosmos 1745 Rocket 4.4 02:48:20 10° NNW 02:54:22 57° W 02:57:27 29° SSW
Cosmos 1709 Rocket 3.8 02:51:09 10° N 02:57:17 82° E 02:58:28 60° SSE
Iridium 4 Rocket 4.5 03:01:02 38° ENE 03:01:02 38° ENE 03:05:39 10° NNE
BREEZE-M DEB (TANK) 3.8 02:55:00 10° NW 03:00:05 42° N 03:00:05 42° N
Resurs 01 Rocket 2.5 02:59:56 39° SW 03:00:37 43° W 03:04:52 10° NNW
Cosmos 1833 Rocket 4.1 02:56:21 10° N 03:00:47 24° ENE 03:00:47 24° ENE
SJ 16-02 3.6 03:06:02 16° NE 03:06:02 16° NE 03:07:00 10° NNE
Cosmos 1782 3.7 03:05:25 47° WNW 03:05:25 47° WNW 03:09:01 10° N
Meteor 1-14 Rocket 4.3 03:00:50 10° N 03:06:31 61° ENE 03:06:31 61° ENE
Cosmos 2315 Rocket 4.2 03:03:48 33° SSW 03:06:45 69° W 03:13:08 10° N
Sich 1 4.4 03:06:31 10° NNW 03:10:25 33° W 03:10:56 32° WSW
Spot 2 Rocket 3.5 03:14:56 73° N 03:14:56 73° N 03:19:31 10° N
Cosmos 773 Rocket 4.4 03:13:02 10° N 03:17:32 55° NNE 03:17:32 55° NNE
DELTA 2 R/B (1) 3.7 03:19:49 10° WNW 03:24:51 71° NW 03:24:51 71° NW
SPOT 5 3.6 03:29:44 52° N 03:29:44 52° N 03:33:42 10° N
Meteor 2-6 Rocket 4.3 03:29:54 66° N 03:29:54 66° N 03:34:36 10° N
ERS-1 Rocket 3.6 03:30:49 52° N 03:30:49 52° N 03:34:39 10° N
X-37B 4.0 03:28:48 10° NNW 03:29:15 12° NNW 03:29:15 12° NNW
COSMOS 2406 4.0 03:27:31 10° N 03:31:59 41° NE 03:31:59 41° NE
Cosmos 2082 Rocket 3.9 03:30:19 10° N 03:33:51 22° NE 03:33:51 22° NE
Terra 3.1 03:37:53 35° NNE 03:37:53 35° NNE 03:40:46 10° N
Milstar 3 3.4 03:23:40 10° WSW 03:36:42 59° S 03:36:56 59° SSE
SL-4 R/B 4.4 03:41:26 10° WNW 03:43:23 21° W 03:43:23 21° W
ARIANE 5 R/B 4.5 03:50:49 28° NW 03:50:49 28° NW 03:53:15 10° NNW
CZ-4C R/B 3.2 03:43:53 10° NNW 03:51:28 63° ENE 03:52:00 61° ENE
Cosmos 2278 Rocket 3.0 03:52:43 46° WNW 03:52:58 47° WNW 03:58:25 10° N
Cosmos 1943 Rocket 4.4 04:16:22 16° NE 04:16:22 16° NE 04:17:28 10° NE
CZ-3C R/B 4.3 03:48:33 10° W 04:31:05 36° SW 04:31:05 36° SW
ATLAS 5 CENTAUR R/B 4.1 04:29:51 10° NW 04:33:20 26° W 04:33:20 26° W
SJ 16-02 4.2 04:42:57 14° NW 04:42:57 14° NW 04:44:16 10° NNW
Cosmos 1833 Rocket 4.4 04:39:39 10° NW 04:42:29 27° WNW 04:42:29 27° WNW
NOSS 3-4 (A) 4.3 04:51:01 10° NNW 04:56:43 60° NNW 04:56:43 60° NNW
NOSS 3-4 (C) 4.3 04:51:07 10° NNW 04:56:51 60° NNW 04:56:51 60° NNW
ATLAS 2AS CENTAUR R/B 3.5 05:04:48 10° NNW 05:10:10 48° N 05:10:10 48° N
Cosmos 2082 Rocket 4.2 05:13:40 10° NW 05:15:41 21° NW 05:15:41 21° NW
Cosmos 2369 Rocket 4.0 05:50:29 27° N 05:50:29 27° N 05:53:04 10° NNE
Cosmos 1943 Rocket 4.3 05:57:50 21° NNW 05:57:50 21° NNW 06:00:38 10° N
CZ-2D R/B 4.0 06:36:33 10° NNE 06:39:13 24° NE 06:39:13 24° NE
USA 215 4.2 06:51:32 38° NW 06:51:32 38° NW 06:55:17 10° NW
ADEOS II 4.1 06:56:31 10° NE 06:59:20 20° ENE 06:59:20 20° ENE
Resurs 1-4 Rocket 3.5 06:59:24 10° NNE 07:02:30 34° NE 07:02:30 34° NE
SL-16 R/B 3.2 07:09:49 48° ENE 07:09:53 48° ENE 07:15:52 10° N
Lacrosse 5 3.3 07:26:57 35° NNE 07:26:57 35° NNE 07:30:05 10° NNE
Cosmos 1727 Rocket 4.4 07:27:34 59° NNW 07:27:34 59° NNW 07:32:41 10° N
USA 281 3.4 07:30:26 61° NW 07:30:26 61° NW 07:35:46 10° NNW
Lacrosse 4 Rocket 4.2 07:39:59 13° E 07:39:59 13° E 07:41:27 10° ENE
BREEZE-M DEB (TANK) 3.3 07:42:45 62° NNE 07:42:45 62° NNE 07:51:17 10° NE
Cosmos 371 Rocket 4.3 07:47:14 44° NE 07:47:14 44° NE 07:50:49 10° NNE
BREEZE-M R/B 4.1 07:48:47 45° NNW 07:50:30 72° NE 08:00:23 10° SE
Cosmos 1697 Rocket 3.3 08:00:52 45° ESE 08:01:14 45° ESE 08:06:33 10° NE
Cosmos 1025 Rocket 4.2 08:02:13 40° ENE 08:02:13 40° ENE 08:05:38 10° NNE
NPP 4.5 08:03:05 10° N 08:07:15 39° NW 08:07:15 39° NW
CBERS-1 4.1 08:04:27 10° NNE 08:09:29 69° E 08:09:29 69° E
Cosmos 2061 Rocket 4.3 08:05:22 10° N 08:11:39 65° E 08:14:10 38° SSE
Cosmos 1980 Rocket 3.8 08:09:43 22° SE 08:11:41 27° ESE 08:16:22 10° NE
Cosmos 1674 4.2 08:21:32 31° N 08:21:32 31° N 08:23:40 10° N
Cosmos 2369 4.3 08:18:44 41° SE 08:20:01 49° ESE 08:25:32 10° NNE
GP-B 3.7 08:16:13 10° NNE 08:20:32 50° E 08:20:51 49° ESE
CZ-2D R/B 3.5 08:16:51 10° NNW 08:20:32 25° NW 08:20:32 25° NW
Cosmos 1459 Rocket 3.9 08:16:07 10° NNW 08:22:15 62° W 08:22:30 62° WSW
CZ-4B R/B 4.4 08:18:37 10° NNE 08:23:21 42° E 08:24:52 33° SE
Cosmos 2016 Rocket 3.9 08:18:11 10° N 08:24:27 89° E 08:26:17 49° S
Cosmos 2227 Rocket 3.2 08:19:38 10° N 08:25:02 44° ENE 08:30:23 10° SE
DELTA 2 DEB (DPAF) 4.4 08:27:25 58° NNW 08:27:25 58° NNW 08:31:02 10° NNW
Cosmos 2297 Rocket 2.5 08:23:02 10° NNW 08:28:41 65° ENE 08:34:17 10° SSE
Cosmos 1455 Rocket 3.5 08:25:45 10° N 08:29:09 53° NNW 08:29:09 53° NNW
IDEFIX/ARIANE 42P 2.5 08:25:13 10° NNE 08:30:30 82° ESE 08:31:24 62° S
Cosmos 2056 Rocket 4.3 08:29:22 34° SE 08:30:54 43° ESE 08:35:43 10° NNE
Cosmos 1536 Rocket 4.1 08:30:25 49° ESE 08:30:59 52° E 08:35:16 10° NNE
Cosmos 2173 Rocket 4.2 08:26:14 10° NNW 08:32:08 49° W 08:32:19 49° W
Cosmos 1953 3.0 08:28:13 10° N 08:31:09 48° N 08:31:09 48° N
IKONOS-2 4.4 08:37:46 78° SE 08:38:01 83° ENE 08:42:18 10° N
ADEOS II 2.8 08:35:26 10° N 08:40:14 37° WNW 08:40:16 37° WNW
Cosmos 2251 Rocket 3.3 08:37:31 10° NNW 08:42:45 77° WSW 08:44:15 47° S
Cosmos 1371 Rocket 4.1 08:41:27 44° S 08:43:01 69° ESE 08:48:12 10° NNE
Resurs 1-4 Rocket 4.0 08:41:01 10° NNW 08:43:35 15° WNW 08:43:35 15° WNW
IRS-1D 4.1 08:41:29 10° N 08:46:27 41° WNW 08:46:54 40° W
OAO 2 Rocket 3.9 08:46:26 42° S 08:47:00 44° SSE 08:52:03 10° E
OAO 3 Rocket 3.2 08:48:23 60° SSW 08:48:23 60° SSW 08:53:09 10° ESE
Cosmos 1802 Rocket 4.2 08:42:56 10° NNW 08:48:44 45° W 08:49:37 43° WSW
Meteor 2-5 Rocket 4.0 08:47:03 27° S 08:50:15 68° E 08:55:54 10° NNE
Meteor 1-24 Rocket 4.4 08:46:59 19° SSE 08:50:55 53° E 08:56:17 10° NNE
COSMOS 2441 4.4 08:46:48 10° NNE 08:51:44 78° ESE 08:53:34 39° S
ADEOS Rocket 3.4 08:47:30 25° S 08:51:59 69° W 08:59:37 10° NNW
SL-16 R/B 3.9 08:54:53 21° WNW 08:54:53 21° WNW 08:58:23 10° NW
CZ-4C R/B 3.5 08:54:00 61° SW 08:54:22 65° W 08:58:39 10° NNW
Cosmos 2123 Rocket 4.5 08:54:38 36° WSW 08:55:43 39° W 09:01:28 10° N
SL-08 R/B 4.0 08:52:18 10° SSE 08:56:55 53° ENE 09:01:29 10° N
Cosmos 1626 3.1 08:59:39 33° NW 08:59:39 33° NW 09:02:20 10° N
Cosmos 1908 4.0 08:55:50 10° NNW 08:58:41 37° WNW 08:58:41 37° WNW
MSX 3.8 08:56:45 10° N 09:02:31 72° WNW 09:05:13 33° SSW
Cosmos 304 Rocket 4.2 09:02:03 39° W 09:02:44 42° WNW 09:07:16 10° N
Milstar 3 4.3 09:04:29 17° S 09:04:29 17° S 09:07:52 10° SSE
Cosmos 2219 3.1 08:59:22 10° NNW 09:05:03 69° WSW 09:10:44 10° S
USA 234 4.5 09:00:41 10° ENE 09:06:27 33° SE 09:11:32 13° S
Iridium 2 3.8 09:08:09 51° W 09:08:18 52° W 09:12:02 10° N
Lacrosse 5 4.3 09:07:23 10° NW 09:09:02 11° NNW 09:10:41 10° N
Spot 1 4.5 09:09:23 41° SW 09:10:11 46° W 09:14:42 10° NNW
CZ-2C R/B 0.6 09:14:11 54° WNW 09:14:47 78° N 09:18:02 10° E
COSMOS 2455 3.1 09:09:23 10° NW 09:15:04 45° WSW 09:20:44 10° S
SL-14 R/B 3.8 09:16:47 36° W 09:17:04 36° W 09:20:43 10° NNW
Lacrosse 4 Rocket 1.9 09:16:18 36° WSW 09:17:38 48° WNW 09:21:57 10° NNE
CZ-3B R/B 2.9 09:18:00 20° SSE 09:18:18 20° SSE 09:21:56 10° ESE
BREEZE-M DEB (TANK) 3.5 09:18:47 36° SW 09:18:51 36° SW 09:25:12 10° SSE
Cosmos 1140 Rocket 3.5 09:17:33 10° NNW 09:22:47 81° ENE 09:28:01 10° SSE
ARIANE 5 R/B 2.8 09:18:09 10° N 09:23:07 50° WNW 09:25:40 26° SW
ALOS 3.9 09:19:26 10° NNE 09:23:39 33° E 09:27:50 10° SSE
Timation 1 Rocket 4.3 09:19:04 10° NNW 09:25:03 83° WSW 09:31:01 10° SSE
Cosmos 1340 2.6 09:24:26 33° SSW 09:25:53 63° W 09:29:37 10° N
Tianhe-1 2.1 09:24:47 13° NW 09:27:24 46° NNE 09:30:26 10° E
Cosmos 1190 Rocket 4.1 09:23:48 10° NNW 09:29:02 78° ENE 09:34:15 10° SSE
APEX 4.1 09:25:06 10° NNW 09:29:48 80° ENE 09:35:40 10° SSE
Cosmos 1420 Rocket 3.9 09:28:14 20° SSW 09:31:50 75° WNW 09:37:03 10° NNE
USA 129 1.7 09:31:54 34° SSE 09:32:43 75° ENE 09:34:42 10° N
Cosmos 1892 Rocket 4.3 09:30:09 10° S 09:34:22 52° E 09:38:35 10° NNE
PSLV R/B 4.5 09:30:52 10° NNE 09:34:54 46° E 09:38:56 10° S
TSX-5 4.1 09:35:50 10° NW 09:39:21 44° WSW 09:43:41 10° S
Cosmos 1346 Rocket 3.3 09:41:27 10° S 09:45:17 58° E 09:49:07 10° NNE
Cosmos 1697 Rocket 4.1 09:42:37 15° W 09:45:23 21° WNW 09:49:35 10° N
Cosmos 220 Rocket 4.0 09:42:44 13° SSW 09:46:36 81° WNW 09:51:03 10° NNE
CZ-2D R/B 4.4 09:42:55 10° N 09:46:52 33° WNW 09:49:34 17° SW
Cosmos 676 Rocket 4.3 09:46:23 10° NNW 09:51:39 74° ENE 09:56:55 10° SSE
Cosmos 1513 Rocket 4.5 09:46:00 10° N 09:52:13 86° W 09:58:19 10° S
SL-24 R/B 4.5 09:49:04 10° SSE 09:52:37 55° ENE 09:56:20 10° N
CZ-2C R/B 2.6 09:47:52 10° N 09:52:55 61° WNW 09:58:00 10° SSW
Cosmos 1464 Rocket 4.0 09:47:12 10° N 09:53:23 88° E 09:59:36 10° S
Cosmos 405 2.9 09:50:19 10° NNW 09:53:48 67° W 09:57:15 10° S
Cosmos 1980 Rocket 3.0 09:51:31 16° WSW 09:55:28 34° WNW 10:00:37 10° N
Cosmos 407 Rocket 4.0 09:51:16 10° NNW 09:56:14 40° W 10:01:11 10° S
NOSS 3-2 (A) 3.8 09:52:06 10° SSW 09:57:19 55° ESE 10:03:06 10° NE
Cosmos 2346 Rocket 4.4 09:52:10 10° S 09:58:16 75° W 10:04:20 10° N
Cosmos 2034 Rocket 4.4 09:53:50 10° N 10:00:11 70° E 10:06:26 10° SSE
Meteor 2-10 Rocket 3.7 09:55:50 10° N 10:01:35 79° W 10:07:05 10° S
Cosmos 1606 Rocket 3.5 09:59:50 10° NNW 10:04:11 66° W 10:08:33 10° S
Cosmos 1726 Rocket 3.5 10:01:47 10° N 10:06:10 83° W 10:10:33 10° S
USA 238 DEB 4.3 10:01:40 10° S 10:07:54 53° ESE 10:14:22 10° NE
USA 238 4.4 10:01:47 10° S 10:08:00 52° ESE 10:14:28 10° NE
Cosmos 2227 Rocket 3.4 10:04:40 10° NW 10:08:40 20° W 10:12:39 10° SW
Cosmos 1452 Rocket 3.6 10:05:37 10° SSW 10:10:48 62° WNW 10:16:03 10° N
Cosmos 1703 3.8 10:08:06 10° S 10:11:54 61° E 10:15:44 10° NNE
Cosmos 2297 Rocket 3.8 10:09:27 10° WNW 10:12:03 13° W 10:14:38 10° SW
ATLAS 2A CENTAUR R/B 3.7 10:14:07 10° SW 10:18:33 40° SSE 10:33:51 10° E
CZ-4C R/B 4.4 10:16:37 10° SE 10:19:41 40° ENE 10:22:43 10° N
Cosmos 2082 4.4 10:15:56 10° NW 10:20:59 33° WSW 10:26:01 10° SSW
Cosmos 1331 Rocket 4.4 10:16:03 10° S 10:21:07 66° ESE 10:26:15 10° NNE
Cosmos 1954 Rocket 4.2 10:16:57 10° NNW 10:22:05 53° WSW 10:27:13 10° S
Cosmos 1484 Rocket 2.8 10:19:12 10° N 10:23:08 67° WNW 10:26:59 10° SSW
Cosmos 389 Rocket 3.0 10:19:55 10° N 10:23:24 63° E 10:26:49 10° SSE
Meteor 1-31 Rocket 4.2 10:19:45 10° NNE 10:23:29 41° E 10:27:11 10° S
SL-16 R/B 2.2 10:18:08 10° SSW 10:23:47 78° WNW 10:29:29 10° NNE
Cosmos 292 Rocket 4.4 10:19:27 10° SW 10:23:58 39° WNW 10:28:31 10° N
H-2A R/B 4.4 10:20:23 10° SE 10:24:16 31° ENE 10:28:13 10° N
SJ-6F 4.4 10:20:29 10° N 10:24:32 75° WNW 10:28:35 10° SSW
